SCP
0 0 0 0 0 0 0 0 0 0 0 1 1 1 1 1 1 1 1 1 1 1 1 2 2 2 1 1 1 2 2 2 2 2 2 1 1 1 1 1 1 0 0 0
0 0 0 0 0 0 0 0 0 0 0 1 1 1 1 1 1 1 1 1 1 1 1 2 2 2 2 2 1 1 2 2 2 1 1 1 1 1 1 1 1 0 0 0
0 0 0 0 0 0 0 0 0 0 1 1 1 1 1 1 1 1 1 0 1 1 1 1 2 3 3 2 2 1 2 2 2 1 1 1 1 1 1 1 1 0 0 0
0 0 0 0 0 0 0 0 0 0 1 1 1 1 1 1 1 1 1 0 0 1 1 1 2 3 4 3 2 2 2 2 2 1 1 1 1 1 1 1 1 0 0 0
0 0 0 0 0 0 0 0 0 0 0 1 1 1 1 1 1 1 1 1 0 1 1 1 2 3 4 4 3 2 2 2 2 1 1 1 1 1 1 1 1 1 0 0
0 0 0 0 0 0 0 0 0 0 0 0 0 0 0 1 1 1 1 1 1 1 1 1 1 2 3 4 3 3 3 2 2 2 1 1 1 1 1 1 1 1 0 0
0 0 0 0 0 0 0 0 0 0 0 0 0 0 0 0 1 1 1 1 1 1 1 1 1 1 3 4 4 3 3 3 3 2 2 1 1 1 1 1 1 0 0 0
0 0 0 0 0 0 0 0 0 0 0 0 0 0 0 0 1 1 1 1 1 1 1 1 1 1 2 3 4 4 4 4 4 3 2 2 1 1 1 1 1 0 0 0
0 0 0 0 0 0 0 0 0 0 0 0 0 0 0 1 1 1 1 1 1 1 1 1 1 1 2 2 3 3 4 4 4 3 3 2 2 2 1 1 1 1 0 0
0 0 0 0 0 0 0 0 0 0 0 0 0 0 1 1 1 1 1 1 1 1 1 1 1 1 1 1 1 2 2 3 3 3 2 2 2 2 2 1 1 1 1 1
0 0 0 0 0 0 0 0 0 0 0 0 0 0 0 1 1 1 1 1 1 2 2 1 1 1 1 1 1 1 1 2 2 2 2 2 2 2 2 2 2 1 1 1
0 0 0 0 0 0 0 0 0 0 0 0 0 0 0 0 0 0 1 1 1 2 2 1 1 1 1 1 1 1 1 2 2 2 2 2 2 2 2 3 2 2 1 1
0 0 0 0 0 0 0 0 0 0 0 0 0 0 0 0 0 0 1 1 1 2 2 1 1 1 1 1 1 2 2 2 2 2 2 2 2 2 2 3 3 2 2 2
0 0 0 0 0 0 0 0 0 0 0 0 0 0 0 0 0 1 1 2 2 2 1 1 1 1 1 1 1 2 2 2 2 2 2 2 2 2 3 3 3 3 2 2
0 0 0 0 0 0 0 0 0 0 0 0 0 0 0 0 0 1 1 2 3 3 2 1 1 1 1 1 1 1 2 2 2 2 1 2 2 3 3 3 3 3 3 3
0 0 0 0 0 0 0 0 0 0 0 0 0 0 0 0 1 1 2 2 3 3 2 1 1 1 1 1 1 1 2 2 1 1 1 1 2 2 3 3 3 3 3 3
0 0 0 0 0 0 0 0 0 0 0 0 0 0 0 0 0 1 1 2 3 3 2 2 1 1 1 1 1 2 2 1 1 1 1 1 1 2 3 3 2 3 3 3
0 0 0 0 0 0 0 0 0 0 0 0 0 0 0 0 0 1 1 1 2 2 2 2 1 1 1 1 2 2 2 1 1 1 1 1 1 2 3 3 2 2 2 2
0 0 0 0 0 0 0 0 0 0 0 0 0 0 0 0 0 0 0 1 1 2 2 2 2 1 1 1 2 3 2 1 1 0 1 1 1 2 3 3 2 2 2 2
0 0 0 0 0 0 0 0 0 0 0 0 0 0 0 0 0 0 0 1 1 1 1 1 2 2 2 2 3 3 2 1 0 0 0 0 1 1 2 2 2 2 2 2
0 0 0 0 0 0 0 0 0 0 0 0 0 0 0 0 0 0 0 1 1 1 1 1 2 2 2 2 2 2 1 0 0 0 0 0 1 1 2 2 2 2 2 2
0 0 0 0 0 0 0 0 0 0 0 0 0 0 0 0 0 0 1 1 1 1 1 1 1 2 2 2 1 1 0 0 0 0 0 1 1 1 1 2 2 2 2 2
0 0 0 0 0 0 0 0 0 0 0 0 0 0 0 0 1 1 1 1 1 1 1 1 1 2 3 2 2 1 0 0 0 0 0 0 1 1 1 2 2 2 2 2
0 0 0 0 0 0 0 0 0 0 0 0 0 0 0 0 0 1 1 1 1 1 1 1 1 1 2 3 2 1 0 0 0 0 0 0 1 1 1 2 2 2 2 2
0 0 0 0 0 0 0 0 0 0 0 0 0 0 0 0 0 0 1 1 1 1 1 1 1 1 2 2 2 1 0 0 0 0 0 1 1 1 1 1 1 1 1 1
0 0 0 0 0 0 0 0 0 0 0 0 0 0 0 0 0 0 0 1 1 1 1 1 1 1 1 2 2 1 1 0 0 0 0 1 1 1 1 1 1 1 1 1
Wind_Speed
5 4 3 2 2 4 5 4 3 1 3 2 4 4 5 6 6 5 5 5 5 5 6 5 4 3 2 1 2 4 4 3 3 2 2 2 2 1 1 1 2 2 1 2
5 4 3 2 2 5 5 5 4 2 1 3 4 5 5 6 7 6 5 5 4 4 5 5 5 4 3 2 1 3 4 4 4 3 2 2 2 1 2 1 1 1 2 2
4 1 0 4 4 5 5 4 4 3 3 6 5 6 6 8 7 6 5 4 3 4 5 6 5 4 4 3 3 3 3 5 5 5 2 2 2 1 2 2 1 0 1 1
3 2 3 4 4 6 4 3 5 5 5 4 5 3 4 7 8 8 6 5 4 3 3 5 5 5 4 4 3 4 4 4 5 6 4 3 3 2 2 2 2 1 2 2
3 3 4 5 4 5 4 5 7 8 7 7 7 5 3 6 7 7 7 6 5 5 4 4 4 4 4 4 3 3 4 4 5 6 5 4 2 2 2 2 3 2 2 2
6 3 4 4 4 5 5 7 9 8 6 7 6 4 2 3 4 5 5 5 5 4 4 4 4 4 4 4 4 3 3 3 3 4 5 4 3 3 3 3 2 2 2 1
7 7 6 4 6 5 6 5 3 4 5 4 2 3 2 4 5 5 5 4 4 4 4 4 4 4 4 4 4 4 3 3 3 4 5 5 4 4 4 3 3 2 2 1
6 6 7 5 6 5 5 6 4 3 3 2 3 2 4 6 6 5 5 4 3 3 3 3 3 4 4 5 5 5 4 4 3 4 4 4 4 3 2 3 3 3 2 2
5 2 5 4 4 5 5 5 5 6 8 6 2 4 5 6 6 5 5 4 3 3 3 3 3 3 4 4 4 4 4 4 4 5 4 4 4 4 3 3 3 2 2 2
7 5 3 4 4 7 7 7 4 3 4 5 3 2 3 5 5 5 4 3 4 3 3 3 3 3 3 3 3 4 4 4 4 4 4 3 3 4 4 3 4 4 3 3
6 7 5 5 7 7 7 7 5 4 5 4 3 1 3 4 4 3 3 4 4 3 3 2 2 2 2 3 4 4 4 3 3 3 3 3 3 3 3 3 3 3 3 3
5 6 7 7 6 5 6 7 6 5 5 4 5 2 4 4 4 3 3 4 4 4 3 3 3 2 1 2 3 3 2 3 3 3 3 3 3 3 3 3 3 3 3 3
3 5 6 4 3 3 6 7 7 7 6 6 6 3 3 3 3 3 3 4 4 4 3 3 3 2 2 2 2 2 2 2 2 2 3 3 3 3 3 3 3 3 3 3
4 7 8 7 5 4 6 8 7 7 6 7 7 6 2 0 2 3 3 4 4 4 3 3 2 2 2 1 2 2 2 2 2 2 2 3 3 3 3 3 2 2 2 3
5 9 10 10 10 9 8 9 9 10 9 9 8 8 6 3 1 2 2 3 4 3 3 3 2 2 2 2 2 2 2 2 2 2 2 2 3 3 3 3 2 2 2 2
7 9 10 12 12 11 11 11 10 10 10 10 10 9 5 4 1 1 2 3 3 3 3 3 2 2 2 2 2 2 2 3 2 3 2 2 2 2 3 3 3 2 2 2
7 9 10 10 10 12 11 9 9 9 9 9 9 6 4 3 1 1 2 2 3 3 3 2 2 1 2 2 2 2 2 2 2 2 2 2 2 2 3 3 3 3 3 2
8 8 6 8 9 11 5 2 4 5 6 5 5 3 3 3 2 1 1 2 3 3 3 2 1 1 1 2 2 2 2 3 3 2 2 2 2 2 2 3 3 2 2 3
8 7 6 6 8 10 5 2 2 4 4 3 4 3 4 3 1 2 1 2 2 2 2 2 1 1 2 2 2 2 3 3 3 2 2 2 2 3 3 3 3 2 2 2
7 8 7 7 8 8 3 3 3 4 3 2 3 3 3 2 2 1 2 2 2 1 1 1 1 1 1 2 2 2 2 3 3 3 2 2 2 3 4 4 3 2 2 2
7 8 9 9 9 7 2 3 3 3 1 4 4 4 3 2 2 1 1 1 0 1 1 1 1 1 1 2 2 3 2 2 2 2 2 2 2 3 3 4 3 3 3 3
6 6 7 7 9 6 2 1 2 2 3 4 5 4 3 2 2 1 1 1 0 1 1 1 1 1 2 2 2 2 1 2 1 2 2 2 2 2 3 3 3 4 4 3
7 5 3 4 3 1 2 2 2 3 4 4 4 5 4 3 2 1 1 1 1 1 1 2 2 2 2 2 3 2 2 2 2 2 2 2 2 2 3 4 4 3 3 3
6 5 5 6 4 3 2 1 1 3 4 4 4 4 4 3 3 2 1 1 1 1 2 2 2 2 2 2 2 2 2 2 2 2 2 2 2 2 3 3 3 3 3 3
6 6 6 8 6 4 3 3 3 4 4 5 5 4 4 4 3 3 3 2 1 1 2 2 2 3 3 3 3 3 2 2 2 2 2 2 2 3 3 2 2 3 3 4
8 7 7 6 5 5 4 3 4 5 5 5 6 6 5 4 3 3 3 1 1 2 2 3 3 3 3 3 3 3 3 3 3 3 3 2 2 2 2 3 2 1 2 4
Wind_Direction
213 229 247 256 259 291 306 311 297 303 130 211 248 240 209 185 183 195 193 191 178 167 158 147 142 131 125 133 141 141 144 150 129 119 119 114 105 97 92 100 101 108 93 86
218 216 238 259 271 274 280 278 274 253 217 249 254 253 211 187 188 189 197 196 170 166 153 145 152 149 158 156 169 159 159 153 135 128 137 134 129 134 117 100 94 109 118 114
238 115 248 251 250 268 271 284 297 298 286 255 246 245 210 181 182 182 193 191 169 170 167 161 160 160 165 173 175 177 156 154 140 137 135 131 118 128 116 121 106 92 96 98
242 226 244 259 260 278 274 301 289 276 270 258 236 251 218 179 180 186 186 185 181 178 174 165 166 169 171 177 179 177 159 161 152 148 152 158 154 153 152 149 156 158 121 110
241 213 250 255 271 289 299 301 282 271 264 268 251 251 190 178 184 181 181 181 178 176 179 168 166 173 173 166 162 158 155 159 158 159 154 166 158 151 144 142 153 151 133 141
259 233 250 275 277 271 285 272 262 252 253 255 238 236 192 173 150 149 159 166 165 169 171 162 162 160 159 149 149 152 149 146 148 155 155 171 162 157 150 152 151 144 135 155
236 221 215 240 258 237 252 268 266 224 218 234 203 222 136 100 97 109 126 144 153 158 160 151 152 153 158 156 158 160 156 156 162 173 174 174 172 172 173 163 154 148 153 166
242 222 188 201 243 261 252 259 277 287 285 277 209 185 120 104 99 98 103 118 128 140 141 143 152 157 156 159 165 170 177 177 178 185 182 173 168 163 167 162 157 162 164 173
279 228 153 182 234 267 270 263 283 300 302 294 231 139 132 120 126 120 109 113 126 135 132 133 133 153 158 163 166 170 180 181 187 190 186 183 171 166 168 166 162 161 164 168
289 283 201 182 219 236 259 285 280 266 290 286 270 220 164 154 145 135 127 119 121 121 128 139 147 152 165 161 165 178 188 192 195 194 188 184 176 169 167 167 166 169 168 165
279 274 240 203 213 232 222 241 256 270 269 288 302 345 92 105 106 122 136 123 117 120 127 133 135 141 146 155 171 190 189 181 189 195 185 176 171 167 167 162 167 166 161 166
256 274 263 242 226 228 251 250 255 261 274 276 288 299 102 108 125 130 128 124 125 122 128 128 120 117 130 158 167 181 186 180 190 189 171 178 176 173 168 163 164 169 173 179
299 272 274 245 201 214 251 252 259 271 278 272 269 268 117 113 117 106 101 111 111 121 124 125 124 134 140 147 163 171 174 167 165 166 169 179 173 174 169 170 175 181 183 181
287 265 267 272 286 268 258 258 259 265 263 267 267 280 280 33 98 89 88 113 123 127 124 117 123 134 130 133 151 156 147 144 161 164 171 187 177 173 167 168 172 175 178 177
247 262 269 276 287 284 273 265 257 256 262 271 281 291 305 327 38 126 122 117 129 139 137 133 144 147 145 164 171 155 147 159 164 155 159 176 161 161 148 144 160 154 146 142
240 264 274 275 274 273 267 260 256 259 263 268 273 278 301 314 2 94 143 144 154 153 143 141 151 143 163 172 162 157 164 166 157 150 152 154 147 143 142 150 156 147 158 143
238 256 268 271 272 276 261 254 251 254 261 263 269 282 304 307 338 225 167 162 157 148 137 139 150 156 177 174 162 172 173 161 154 144 147 146 145 139 148 150 137 145 146 128
257 259 263 270 272 259 259 287 267 266 281 286 286 299 300 313 340 40 93 144 138 139 144 148 166 178 187 165 160 166 159 154 145 144 142 142 142 140 140 129 131 151 147 145
247 249 255 259 265 269 263 264 273 275 281 306 306 318 323 325 5 42 43 86 102 115 126 140 177 196 182 156 147 160 161 158 154 160 169 163 160 156 151 148 153 156 144 150
233 241 243 250 259 263 288 354 345 297 262 322 320 326 335 330 292 323 47 42 50 79 94 113 163 214 141 134 143 153 159 165 170 176 185 177 177 168 165 165 163 157 153 159
218 228 233 245 253 262 311 354 339 267 327 4 358 350 344 314 324 21 51 38 11 127 136 157 182 171 132 144 151 154 157 166 175 175 177 173 179 181 175 166 161 160 160 164
233 229 230 236 243 249 22 334 303 335 4 9 3 349 342 337 360 21 17 354 158 160 178 178 154 140 139 147 146 148 156 143 137 155 172 178 182 186 167 155 163 168 164 167
235 242 250 244 248 331 356 360 356 344 333 353 358 344 335 332 318 312 289 292 240 199 190 167 160 164 170 159 153 170 173 149 155 174 180 179 179 173 162 163 174 171 169 173
267 265 262 266 256 271 275 295 320 321 317 332 338 334 331 326 320 293 271 264 252 223 184 174 175 191 183 175 175 184 165 162 176 184 185 184 184 173 163 158 163 166 176 180
280 277 264 264 276 283 266 284 299 307 313 323 327 325 319 317 311 307 290 263 254 215 187 184 194 206 206 201 191 178 170 171 186 190 194 196 187 172 164 166 179 182 188 187
262 265 262 266 281 288 288 300 303 296 299 307 310 309 309 312 308 299 296 280 254 229 200 199 201 208 218 214 199 186 185 190 192 196 196 196 184 165 162 159 146 123 178 187